Location: Cantaing
(50.1487°N, 3.1675°E)
Time: 06:05:29
(UTC+00:00)

Lacrosse 5 rocket - Pass Details

Date: 14 January 2026
Orbit: 402 x 482 km, 57.0° (Epoch: 10 February)

Event Time Altitude Azimuth Distance (km) Brightness Sun altitude
Exits shadow 06:18:13 18° 315° (NW) 1,253 2.6 -12.8°
Maximum altitude 06:20:10 28° 1° (N) 947 2.4 -12.5°
Drops below altitude 10° 06:23:30 10° 63° (ENE) 1,684 4.4 -12.0°
Sets 06:25:53 0° 75° (ENE) 2,562 5.7 -11.7°
